Location: Ammerl�gen
(47.2167°N, 9.6000°E)
Time: 03:36:56
(UTC+00:00)

SL-16 R/B - Pass Details

Date: 21 April 2021
Orbit: 840 x 849 km, 71.0° (Epoch: 16 May)

Event Time Altitude Azimuth Distance (km) Brightness Sun altitude
Rises 19:45:42 0° 336° (NNW) 3,423 6.5 -13.8°
Reaches altitude 10° 19:48:19 10° 344° (NNW) 2,483 5.4 -14.2°
Maximum altitude 19:53:42 41° 54° (NE) 1,209 2.9 -14.9°
Enters shadow 19:56:53 22° 112° (ESE) 1,763 3.3 -15.4°
